Regional Weather Roundup
Issued by NWS

Home | Current Version | Previous Version | Text Only | Print | Product List | Glossary On
Versions: 1 2 3 4 5 6 7 8 9 10 11 12 13 14 15 16 17 18 19 20 21 22 23 24 25 26 27 28 29 30 31 32 33 34 35 36 37 38 39 40 41 42 43 44 45 46 47 48 49 50
000
ASCA44 KEWX 211212
RWRMX

LATIN AMERICA AND CARIBBEAN REGIONAL WEATHER ROUNDUP
NATIONAL WEATHER SERVICE AUSTIN/SAN ANTONIO TX
600 AM CST TUE FEB 21 2017

NOTE: "FAIR" INDICATED FEW OR NO CLOUDS BELOW 12,000 FEET WITH NO
SIGNIFICANT WEATHER AND/OR OBSTRUCTIONS TO VISIBILITY.

BAJA CALIFORNIA

CITY           SKY/WX    TMP DP  RH WIND       PRES   REMARKS
S.J. DEL CABO    N/A    N/A N/A N/A MISG        N/A
TIJUANA        CLEAR     52  48  87 CALM      30.31F

NORTHWESTERN MEXICO

CITY           SKY/WX    TMP DP  RH WIND       PRES   REMARKS
HERMOSILLO     CLEAR     55  54  94 CALM      30.16S

NORTHEASTERN MEXICO

CITY           SKY/WX    TMP DP  RH WIND       PRES   REMARKS
CHIHUAHUA      CLEAR     32  19  59 S9        30.34  WCI  24
MONCLOVA       CLEAR     59  41  51 S10       30.20
MONTERREY      CLEAR     54  28  37 NW6       30.13R
NUEVO LAREDO   CLEAR     55  39  54 W6        30.08
REYNOSA          N/A    N/A N/A N/A MISG        N/A
CD. VICTORIA     N/A    N/A N/A N/A MISG        N/A

WESTERN MEXICO

CITY           SKY/WX    TMP DP  RH WIND       PRES   REMARKS
AGUASCALIENTES CLEAR     43  18  36 NE13      30.32  WCI  36
COLIMA           N/A    N/A N/A N/A MISG        N/A
DEL BAJIO      CLEAR     54  41  62 NE9       30.30R
GUADALAJARA    CLEAR     43  36  75 S3        30.21
MAZATLAN       CLEAR     59  54  82 CALM      29.98S
P. VALLARTA    CLEAR     61  61 100 NE2       29.94S
URUAPAN          N/A    N/A N/A N/A MISG        N/A
ZACATECAS      CLEAR     30  14  51 CALM      30.36R

CENTRAL MEXICO

CITY           SKY/WX    TMP DP  RH WIND       PRES   REMARKS
CUERNAVACA       N/A    N/A N/A N/A MISG        N/A
MEXICO CITY    MOCLDY    46  39  76 NE7       30.34R WCI  43
MORELIA        CLEAR     39  32  75 CALM      30.25
POZA RICA        N/A    N/A N/A N/A MISG        N/A
QUERETARO      MOCLDY    50  45  81 SE7       30.33R WCI  47
S. LUIS POTOSI PTCLDY    46  18  31 CALM      30.32R
TAMPICO        MOCLDY    66  57  72 N7        30.12
TOLUCA         CLEAR     32  23  69 CALM      30.37S

SOUTHERN MEXICO

CITY           SKY/WX    TMP DP  RH WIND       PRES   REMARKS
ACAPULCO       CLEAR     72  68  88 CALM      29.90R
B. DE HUATULCO   N/A    N/A N/A N/A MISG        N/A
OAXACA           N/A    N/A N/A N/A MISG        N/A
P. ESCONDIDO     N/A    N/A N/A N/A MISG        N/A
VERACRUZ       CLOUDY    75  59  57 N23       30.02

YUCATAN PENINSULA

CITY           SKY/WX    TMP DP  RH WIND       PRES   REMARKS
CAMPECHE       CLEAR     73  72  94 SE7       29.90
CANCUN         PTCLDY    75  72  88 E5        29.97R
CHETUMAL       PTCLDY    79  73  83 SE9       29.93
CD. DEL CARMEN MOCLDY    77  70  78 SE12      29.93
COZUMEL        PTCLDY    75  72  88 SE5       29.94R
MERIDA         CLEAR     70  68  94 E7        29.97
MINATITLAN     MOCLDY    72  68  88 W6        29.95
TAPACHULA      CLEAR     70  68  94 CALM      29.92R
VILLAHERMOSA   CLOUDY    75  75 100 CALM      29.95R

CENTRAL AMERICA

CITY           SKY/WX    TMP DP  RH WIND       PRES   REMARKS
BELIZE CITY    PTCLDY    79  75  89 E3        29.91R
MANAGUA        MOSUNNY   72  66  83 E5        29.92S

CARIBBEAN

CITY           SKY/WX    TMP DP  RH WIND       PRES   REMARKS
ARUBA          MOSUNNY   77  70  78 VRB1      29.92S
KINGSTON       MOCLDY    75  70  83 NE3       29.92S
NASSAU         MOCLDY    70  61  73 CALM      30.09R
SAN JUAN       MOSUNNY   79  64  61 W9        29.90R
SANTO DOMINGO  MOSUNNY   70  64  83 N7        29.92S
ST. CROIX      PTSUNNY   75  68  78 NW12      29.90
ST. KITTS      PTSUNNY   73  70  88 W7        29.86S
ST. MAARTEN    PTSUNNY  N/A N/A N/A VRB3      29.86S
ST. THOMAS     MOSUNNY   77  70  78 NW18      29.87

$$




USA.gov is the U.S. government's official web portal to all federal, state and local government web resources and services.